Terminal Aerodrome Forecast
Issued by NWS Omaha/Valley, NE

Home | Current Version | Previous Version | Text Only | Print | Product List | Glossary Off
Versions: 1 2 3 4 5 6 7 8 9 10 11 12 13 14 15 16 17 18 19 20 21 22 23 24 25 26 27 28 29 30 31 32 33 34 35 36 37 38 39 40 41 42 43 44 45 46

000
FTUS43 KOAX 261120
TAFOFK
TAF
KOFK 261120Z 2612/2712 13005KT 1/2SM FG OVC002
     FM261330 15005KT 3SM BR BKN004
      TEMPO 2614/2615 3/4SM BR
     FM261500 18005KT P6SM FEW030 SCT250=

USA.gov is the U.S. government's official web portal to all federal, state and local government web resources and services.